Change the Weather History Date:

Monday, May 5, 2014

  Actual Average Record
Temperature  
Mean Temperature 68 °F -  
Max Temperature 80 °F - - ()
Min Temperature 55 °F - - ()
Cooling Degree Days 2    
Growing Degree Days 18 (Base 50)    
Moisture  
Dew Point 56 °F    
Average Humidity 71    
Maximum Humidity 100    
Minimum Humidity 32    
Precipitation  
Precipitation 0.00 in - - ()
Sea Level Pressure  
Sea Level Pressure 30.18 in    
Wind  
Wind Speed 5 mph ()    
Max Wind Speed 17 mph    
Max Gust Speed -    
Visibility 6.2 miles    
Events Rain    
T = Trace of Precipitation, MM = Missing Value Source: Averaged Metar Reports

Daily Weather History Graph

Daily Weather History Graph

Search for Another Location

Airport or City:

Trip Planner

Search our weather history database for the weather conditions in past years. The results will help you decide how hot, cold, wet, or windy it might be!

Date:

Astronomy

May. 05, 2014 Rise Set
Actual Time 6:31 AM EAT 6:39 PM EAT
Civil Twilight 6:10 AM EAT 7:01 PM EAT
Nautical Twilight 5:45 AM EAT 7:26 PM EAT
Astronomical Twilight 5:20 AM EAT 7:51 PM EAT
Moon 11:31 AM EAT (5/5) 11:54 PM EAT (5/5)
Length of Visible Light 12h 50m
Length of Day
12h 07m
Waxing Crescent, 34% of the Moon is Illuminated
May 5
Waxing Crescent
May 7
First Quarter
May 14
Full
May 21
Last Quarter
May 28
New

Hourly Weather History & Observations

Time (EAT) Temp. Heat Index Dew Point Humidity Pressure Visibility Wind Dir Wind Speed Gust Speed Precip Events Conditions
12:00 AM 60.8 °F - 59.0 °F 94% 30.21 in 6.2 mi SE 4.6 mph - N/A   Mostly Cloudy
1:00 AM 60.8 °F - 59.0 °F 94% 30.21 in 6.2 mi Variable 2.3 mph - N/A   Mostly Cloudy
2:00 AM 59.0 °F - 59.0 °F 100% 30.18 in 6.2 mi Calm Calm - N/A   Mostly Cloudy
3:00 AM 59.0 °F - 57.2 °F 94% 30.18 in 6.2 mi Calm Calm - N/A Rain Light Rain
4:00 AM 59.0 °F - 57.2 °F 94% 30.18 in - East 3.5 mph - N/A   Clear
5:00 AM 59.0 °F - 57.2 °F 94% 30.18 in - East 4.6 mph - N/A   Clear
6:00 AM 55.4 °F - 53.6 °F 94% 30.18 in - ESE 5.8 mph - N/A   Clear
7:00 AM 55.4 °F - 53.6 °F 94% 30.18 in 6.2 mi East 3.5 mph - N/A   Mostly Cloudy
8:00 AM 60.8 °F - 57.2 °F 88% 30.21 in 6.2 mi NE 3.5 mph - N/A   Mostly Cloudy
9:00 AM 68.0 °F - 57.2 °F 68% 30.24 in 6.2 mi ENE 8.1 mph - N/A   Mostly Cloudy
10:00 AM 73.4 °F - 55.4 °F 53% 30.24 in 6.2 mi ENE 13.8 mph - N/A   Mostly Cloudy
11:00 AM 73.4 °F - 53.6 °F 50% - 6.2 mi East 17.3 mph - N/A   Mostly Cloudy
12:00 PM 77.0 °F - 50.0 °F 39% 30.21 in 6.2 mi NE 12.7 mph - N/A   Scattered Clouds
1:00 PM 80.6 °F 80.3 °F 53.6 °F 39% 30.18 in 6.2 mi ENE 9.2 mph - N/A   Scattered Clouds
2:00 PM 78.8 °F - 51.8 °F 39% 30.15 in 6.2 mi ENE 10.4 mph - N/A   Mostly Cloudy
3:00 PM 78.8 °F - 50.0 °F 36% 30.15 in 6.2 mi NE 15.0 mph - N/A   Mostly Cloudy
4:00 PM 78.8 °F - 48.2 °F 34% 30.12 in 6.2 mi East 16.1 mph - N/A   Mostly Cloudy
5:00 PM 78.8 °F - 46.4 °F 32% 30.12 in 6.2 mi East 10.4 mph - N/A   Mostly Cloudy
6:00 PM 68.0 °F - 59.0 °F 73% 30.15 in 6.2 mi SSE 4.6 mph - N/A   Mostly Cloudy
7:00 PM 68.0 °F - 59.0 °F 73% 30.15 in 6.2 mi South 4.6 mph - N/A   Mostly Cloudy
8:00 PM 66.2 °F - 59.0 °F 78% 30.18 in 6.2 mi East 3.5 mph - N/A   Mostly Cloudy
9:00 PM 64.4 °F - 59.0 °F 83% 30.18 in 6.2 mi SSE 3.5 mph - N/A   Mostly Cloudy
10:00 PM 66.2 °F - 60.8 °F 83% 30.21 in 6.2 mi SE 4.6 mph - N/A   Mostly Cloudy
11:00 PM 66.2 °F - 60.8 °F 83% 30.21 in 6.2 mi South 3.5 mph - N/A   Mostly Cloudy